﻿_id,日時,10分間移動積算雨量(mm),1時間移動積算雨量(mm),日雨量(mm),累計雨量(mm)
1,2020-07-06T00:00:00,0.5,0.5,0.5,0.5
2,2020-07-06T00:01:00,0.5,0.5,0,0.5
3,2020-07-06T00:02:00,0.5,0.5,0,0.5
4,2020-07-06T00:03:00,0.5,0.5,0,0.5
5,2020-07-06T00:04:00,0.5,0.5,0,0.5
6,2020-07-06T00:05:00,0.5,0.5,0,0.5
7,2020-07-06T00:06:00,0,0.5,0,0.5
8,2020-07-06T00:07:00,0,0.5,0,0.5
9,2020-07-06T00:08:00,0,0.5,0,0.5
10,2020-07-06T00:09:00,0,0.5,0,0.5
11,2020-07-06T00:10:00,0,0.5,0,0.5
12,2020-07-06T00:11:00,0,0.5,0,0.5
13,2020-07-06T00:12:00,0,0.5,0,0.5
14,2020-07-06T00:13:00,0,0.5,0,0.5
15,2020-07-06T00:14:00,0,0.5,0,0.5
16,2020-07-06T00:15:00,0,0.5,0,0.5
17,2020-07-06T00:16:00,0,0.5,0,0.5
18,2020-07-06T00:17:00,0,0.5,0,0.5
19,2020-07-06T00:18:00,0,0.5,0,0.5
20,2020-07-06T00:19:00,0,0.5,0,0.5
21,2020-07-06T00:20:00,0,0.5,0,0.5
22,2020-07-06T00:21:00,0,0.5,0,0.5
23,2020-07-06T00:22:00,0,0.5,0,0.5
24,2020-07-06T00:23:00,0,0.5,0,0.5
25,2020-07-06T00:24:00,0,0.5,0,0.5
26,2020-07-06T00:25:00,0,0.5,0,0.5
27,2020-07-06T00:26:00,0,0.5,0,0.5
28,2020-07-06T00:27:00,0,0.5,0,0.5
29,2020-07-06T00:28:00,0,0.5,0,0.5
30,2020-07-06T00:29:00,0,0.5,0,0.5
31,2020-07-06T00:30:00,0,0.5,0,0.5
32,2020-07-06T00:31:00,0,0.5,0,0.5
33,2020-07-06T00:32:00,0,0.5,0,0.5
34,2020-07-06T00:33:00,0,0.5,0,0.5
35,2020-07-06T00:34:00,0,0.5,0,0.5
36,2020-07-06T00:35:00,0,0.5,0,0.5
37,2020-07-06T00:36:00,0,0.5,0,0.5
38,2020-07-06T00:37:00,0,0.5,0,0.5
39,2020-07-06T00:38:00,0,0.5,0,0.5
40,2020-07-06T00:39:00,0,0.5,0,0.5
41,2020-07-06T00:40:00,0,0.5,0,0.5
42,2020-07-06T00:41:00,0,0.5,0,0.5
43,2020-07-06T00:42:00,0,0.5,0,0.5
44,2020-07-06T00:43:00,0,0.5,0,0.5
45,2020-07-06T00:44:00,0,0.5,0,0.5
46,2020-07-06T00:45:00,0,0.5,0,0.5
47,2020-07-06T00:46:00,0,0.5,0,0.5
48,2020-07-06T00:47:00,0,0.5,0,0.5
49,2020-07-06T00:48:00,0,0.5,0,0.5
50,2020-07-06T00:49:00,0,0.5,0,0.5
51,2020-07-06T00:50:00,0,0.5,0,0.5
52,2020-07-06T00:51:00,0,0.5,0,0.5
53,2020-07-06T00:52:00,0,0.5,0,0.5
54,2020-07-06T00:53:00,0,0.5,0,0.5
55,2020-07-06T00:54:00,0,0.5,0,0.5
56,2020-07-06T00:55:00,0,0.5,0,0.5
57,2020-07-06T00:56:00,0.5,0.5,0.5,1
58,2020-07-06T00:57:00,0.5,0.5,0.5,1
59,2020-07-06T00:58:00,0.5,0.5,0.5,1
60,2020-07-06T00:59:00,0.5,0.5,0.5,1
61,2020-07-06T01:00:00,0.5,0.5,0.5,1
62,2020-07-06T01:01:00,0.5,0.5,0.5,1
63,2020-07-06T01:02:00,0.5,0.5,0.5,1
64,2020-07-06T01:03:00,0.5,0.5,0.5,1
65,2020-07-06T01:04:00,1,1,1,1.5
66,2020-07-06T01:05:00,1,1,1,1.5
67,2020-07-06T01:06:00,0.5,1,1,1.5
68,2020-07-06T01:07:00,0.5,1,1,1.5
69,2020-07-06T01:08:00,0.5,1,1,1.5
70,2020-07-06T01:09:00,1,1.5,1.5,2
71,2020-07-06T01:10:00,1,1.5,1.5,2
72,2020-07-06T01:11:00,1,1.5,1.5,2
73,2020-07-06T01:12:00,1,1.5,1.5,2
74,2020-07-06T01:13:00,1,1.5,1.5,2
75,2020-07-06T01:14:00,0.5,1.5,1.5,2
76,2020-07-06T01:15:00,0.5,1.5,1.5,2
77,2020-07-06T01:16:00,0.5,1.5,1.5,2
78,2020-07-06T01:17:00,1,2,2,2.5
79,2020-07-06T01:18:00,1,2,2,2.5
80,2020-07-06T01:19:00,0.5,2,2,2.5
81,2020-07-06T01:20:00,1,2.5,2.5,3
82,2020-07-06T01:21:00,1.5,3,3,3.5
83,2020-07-06T01:22:00,1.5,3,3,3.5
84,2020-07-06T01:23:00,1.5,3,3,3.5
85,2020-07-06T01:24:00,2,3.5,3.5,4
86,2020-07-06T01:25:00,2,3.5,3.5,4
87,2020-07-06T01:26:00,2.5,4,4,4.5
88,2020-07-06T01:27:00,2,4,4,4.5
89,2020-07-06T01:28:00,2,4,4,4.5
90,2020-07-06T01:29:00,2,4,4,4.5
91,2020-07-06T01:30:00,1.5,4,4,4.5
92,2020-07-06T01:31:00,1,4,4,4.5
93,2020-07-06T01:32:00,1,4,4,4.5
94,2020-07-06T01:33:00,1.5,4.5,4.5,5
95,2020-07-06T01:34:00,1,4.5,4.5,5
96,2020-07-06T01:35:00,1,4.5,4.5,5
97,2020-07-06T01:36:00,0.5,4.5,4.5,5
98,2020-07-06T01:37:00,0.5,4.5,4.5,5
99,2020-07-06T01:38:00,0.5,4.5,4.5,5
100,2020-07-06T01:39:00,0.5,4.5,4.5,5
101,2020-07-06T01:40:00,0.5,4.5,4.5,5
102,2020-07-06T01:41:00,0.5,4.5,4.5,5
103,2020-07-06T01:42:00,0.5,4.5,4.5,5
104,2020-07-06T01:43:00,0,4.5,4.5,5
105,2020-07-06T01:44:00,0,4.5,4.5,5
106,2020-07-06T01:45:00,0,4.5,4.5,5
107,2020-07-06T01:46:00,0,4.5,4.5,5
108,2020-07-06T01:47:00,0,4.5,4.5,5
109,2020-07-06T01:48:00,0,4.5,4.5,5
110,2020-07-06T01:49:00,0,4.5,4.5,5
111,2020-07-06T01:50:00,0,4.5,4.5,5
112,2020-07-06T01:51:00,0,4.5,4.5,5
113,2020-07-06T01:52:00,0,4.5,4.5,5
114,2020-07-06T01:53:00,0,4.5,4.5,5
115,2020-07-06T01:54:00,0.5,5,5,5.5
116,2020-07-06T01:55:00,0.5,5,5,5.5
117,2020-07-06T01:56:00,0.5,4.5,5,5.5
118,2020-07-06T01:57:00,0.5,4.5,5,5.5
119,2020-07-06T01:58:00,0.5,4.5,5,5.5
120,2020-07-06T01:59:00,0.5,4.5,5,5.5
121,2020-07-06T02:00:00,0.5,4.5,5,5.5
122,2020-07-06T02:01:00,0.5,4.5,5,5.5
123,2020-07-06T02:02:00,0.5,4.5,5,5.5
124,2020-07-06T02:03:00,0.5,4.5,5,5.5
125,2020-07-06T02:04:00,0,4,5,5.5
126,2020-07-06T02:05:00,0,4,5,5.5
127,2020-07-06T02:06:00,0,4,5,5.5
128,2020-07-06T02:07:00,0,4,5,5.5
129,2020-07-06T02:08:00,0,4,5,5.5
130,2020-07-06T02:09:00,0,3.5,5,5.5
131,2020-07-06T02:10:00,0,3.5,5,5.5
132,2020-07-06T02:11:00,0,3.5,5,5.5
133,2020-07-06T02:12:00,0,3.5,5,5.5
134,2020-07-06T02:13:00,0,3.5,5,5.5
135,2020-07-06T02:14:00,0,3.5,5,5.5
136,2020-07-06T02:15:00,0,3.5,5,5.5
137,2020-07-06T02:16:00,0,3.5,5,5.5
138,2020-07-06T02:17:00,0,3,5,5.5
139,2020-07-06T02:18:00,0.5,3.5,5.5,6
140,2020-07-06T02:19:00,0.5,3.5,5.5,6
141,2020-07-06T02:20:00,0.5,3,5.5,6
142,2020-07-06T02:21:00,0.5,2.5,5.5,6
143,2020-07-06T02:22:00,0.5,2.5,5.5,6
144,2020-07-06T02:23:00,0.5,2.5,5.5,6
145,2020-07-06T02:24:00,0.5,2,5.5,6
146,2020-07-06T02:25:00,0.5,2,5.5,6
147,2020-07-06T02:26:00,0.5,1.5,5.5,6
148,2020-07-06T02:27:00,0.5,1.5,5.5,6
149,2020-07-06T02:28:00,0,1.5,5.5,6
150,2020-07-06T02:29:00,0,1.5,5.5,6
151,2020-07-06T02:30:00,0,1.5,5.5,6
152,2020-07-06T02:31:00,0,1.5,5.5,6
153,2020-07-06T02:32:00,0,1.5,5.5,6
154,2020-07-06T02:33:00,0,1,5.5,6
155,2020-07-06T02:34:00,0,1,5.5,6
156,2020-07-06T02:35:00,0,1,5.5,6
157,2020-07-06T02:36:00,0,1,5.5,6
158,2020-07-06T02:37:00,0,1,5.5,6
159,2020-07-06T02:38:00,0,1,5.5,6
160,2020-07-06T02:39:00,0,1,5.5,6
161,2020-07-06T02:40:00,0,1,5.5,6
162,2020-07-06T02:41:00,0,1,5.5,6
163,2020-07-06T02:42:00,0,1,5.5,6
164,2020-07-06T02:43:00,0,1,5.5,6
165,2020-07-06T02:44:00,0,1,5.5,6
166,2020-07-06T02:45:00,0,1,5.5,6
167,2020-07-06T02:46:00,0,1,5.5,6
168,2020-07-06T02:47:00,0,1,5.5,6
169,2020-07-06T02:48:00,0,1,5.5,6
170,2020-07-06T02:49:00,0,1,5.5,6
171,2020-07-06T02:50:00,0.5,1.5,6,6.5
172,2020-07-06T02:51:00,0.5,1.5,6,6.5
173,2020-07-06T02:52:00,0.5,1.5,6,6.5
174,2020-07-06T02:53:00,0.5,1.5,6,6.5
175,2020-07-06T02:54:00,0.5,1,6,6.5
176,2020-07-06T02:55:00,0.5,1,6,6.5
177,2020-07-06T02:56:00,0.5,1,6,6.5
178,2020-07-06T02:57:00,0.5,1,6,6.5
179,2020-07-06T02:58:00,0.5,1,6,6.5
180,2020-07-06T02:59:00,0.5,1,6,6.5
181,2020-07-06T03:00:00,0,1,6,6.5
182,2020-07-06T03:01:00,0,1,6,6.5
183,2020-07-06T03:02:00,0,1,6,6.5
184,2020-07-06T03:03:00,0.5,1.5,6.5,7
185,2020-07-06T03:04:00,0.5,1.5,6.5,7
186,2020-07-06T03:05:00,0.5,1.5,6.5,7
187,2020-07-06T03:06:00,0.5,1.5,6.5,7
188,2020-07-06T03:07:00,0.5,1.5,6.5,7
189,2020-07-06T03:08:00,0.5,1.5,6.5,7
190,2020-07-06T03:09:00,0.5,1.5,6.5,7
191,2020-07-06T03:10:00,0.5,1.5,6.5,7
192,2020-07-06T03:11:00,0.5,1.5,6.5,7
193,2020-07-06T03:12:00,0.5,1.5,6.5,7
194,2020-07-06T03:13:00,0.5,2,7,7.5
195,2020-07-06T03:14:00,0.5,2,7,7.5
196,2020-07-06T03:15:00,0.5,2,7,7.5
197,2020-07-06T03:16:00,0.5,2,7,7.5
198,2020-07-06T03:17:00,0.5,2,7,7.5
199,2020-07-06T03:18:00,0.5,1.5,7,7.5
200,2020-07-06T03:19:00,0.5,1.5,7,7.5
201,2020-07-06T03:20:00,0.5,1.5,7,7.5
202,2020-07-06T03:21:00,0.5,1.5,7,7.5
203,2020-07-06T03:22:00,0.5,1.5,7,7.5
204,2020-07-06T03:23:00,0,1.5,7,7.5
205,2020-07-06T03:24:00,0.5,2,7.5,8
206,2020-07-06T03:25:00,0.5,2,7.5,8
207,2020-07-06T03:26:00,0.5,2,7.5,8
208,2020-07-06T03:27:00,0.5,2,7.5,8
209,2020-07-06T03:28:00,0.5,2,7.5,8
210,2020-07-06T03:29:00,0.5,2,7.5,8
211,2020-07-06T03:30:00,0.5,2,7.5,8
212,2020-07-06T03:31:00,0.5,2,7.5,8
213,2020-07-06T03:32:00,0.5,2,7.5,8
214,2020-07-06T03:33:00,1,2.5,8,8.5
215,2020-07-06T03:34:00,0.5,2.5,8,8.5
216,2020-07-06T03:35:00,0.5,2.5,8,8.5
217,2020-07-06T03:36:00,0.5,2.5,8,8.5
218,2020-07-06T03:37:00,0.5,2.5,8,8.5
219,2020-07-06T03:38:00,0.5,2.5,8,8.5
220,2020-07-06T03:39:00,1,3,8.5,9
221,2020-07-06T03:40:00,1,3,8.5,9
222,2020-07-06T03:41:00,1,3,8.5,9
223,2020-07-06T03:42:00,1,3,8.5,9
224,2020-07-06T03:43:00,1,3.5,9,9.5
225,2020-07-06T03:44:00,1,3.5,9,9.5
226,2020-07-06T03:45:00,1,3.5,9,9.5
227,2020-07-06T03:46:00,1,3.5,9,9.5
228,2020-07-06T03:47:00,1,3.5,9,9.5
229,2020-07-06T03:48:00,1,3.5,9,9.5
230,2020-07-06T03:49:00,0.5,3.5,9,9.5
231,2020-07-06T03:50:00,0.5,3,9,9.5
232,2020-07-06T03:51:00,1,3.5,9.5,10
233,2020-07-06T03:52:00,1,3.5,9.5,10
234,2020-07-06T03:53:00,0.5,3.5,9.5,10
235,2020-07-06T03:54:00,0.5,3.5,9.5,10
236,2020-07-06T03:55:00,0.5,3.5,9.5,10
237,2020-07-06T03:56:00,0.5,3.5,9.5,10
238,2020-07-06T03:57:00,0.5,3.5,9.5,10
239,2020-07-06T03:58:00,0.5,3.5,9.5,10
240,2020-07-06T03:59:00,0.5,3.5,9.5,10
241,2020-07-06T04:00:00,1,4,10,10.5
242,2020-07-06T04:01:00,0.5,4,10,10.5
243,2020-07-06T04:02:00,0.5,4,10,10.5
244,2020-07-06T04:03:00,0.5,3.5,10,10.5
245,2020-07-06T04:04:00,0.5,3.5,10,10.5
246,2020-07-06T04:05:00,0.5,3.5,10,10.5
247,2020-07-06T04:06:00,0.5,3.5,10,10.5
248,2020-07-06T04:07:00,0.5,3.5,10,10.5
249,2020-07-06T04:08:00,1,4,10.5,11
250,2020-07-06T04:09:00,1,4,10.5,11
251,2020-07-06T04:10:00,0.5,4,10.5,11
252,2020-07-06T04:11:00,1,4.5,11,11.5
253,2020-07-06T04:12:00,1,4.5,11,11.5
254,2020-07-06T04:13:00,1,4,11,11.5
255,2020-07-06T04:14:00,1.5,4.5,11.5,12
256,2020-07-06T04:15:00,1.5,4.5,11.5,12
257,2020-07-06T04:16:00,1.5,4.5,11.5,12
258,2020-07-06T04:17:00,1.5,4.5,11.5,12
259,2020-07-06T04:18:00,1.5,5,12,12.5
260,2020-07-06T04:19:00,1.5,5,12,12.5
261,2020-07-06T04:20:00,2,5.5,12.5,13
262,2020-07-06T04:21:00,1.5,5.5,12.5,13
263,2020-07-06T04:22:00,1.5,5.5,12.5,13
264,2020-07-06T04:23:00,1.5,5.5,12.5,13
265,2020-07-06T04:24:00,1.5,5.5,13,13.5
266,2020-07-06T04:25:00,1.5,5.5,13,13.5
267,2020-07-06T04:26:00,1.5,5.5,13,13.5
268,2020-07-06T04:27:00,2,6,13.5,14
269,2020-07-06T04:28:00,1.5,6,13.5,14
270,2020-07-06T04:29:00,1.5,6,13.5,14
271,2020-07-06T04:30:00,1,6,13.5,14
272,2020-07-06T04:31:00,1,6,13.5,14
273,2020-07-06T04:32:00,1,6,13.5,14
274,2020-07-06T04:33:00,1,5.5,13.5,14
275,2020-07-06T04:34:00,0.5,5.5,13.5,14
276,2020-07-06T04:35:00,0.5,5.5,13.5,14
277,2020-07-06T04:36:00,0.5,5.5,13.5,14
278,2020-07-06T04:37:00,0.5,6,14,14.5
279,2020-07-06T04:38:00,0.5,6,14,14.5
280,2020-07-06T04:39:00,0.5,5.5,14,14.5
281,2020-07-06T04:40:00,0.5,5.5,14,14.5
282,2020-07-06T04:41:00,0.5,5.5,14,14.5
283,2020-07-06T04:42:00,0.5,5.5,14,14.5
284,2020-07-06T04:43:00,0.5,5,14,14.5
285,2020-07-06T04:44:00,0.5,5,14,14.5
286,2020-07-06T04:45:00,0.5,5,14,14.5
287,2020-07-06T04:46:00,1,5.5,14.5,15
288,2020-07-06T04:47:00,0.5,5.5,14.5,15
289,2020-07-06T04:48:00,0.5,5.5,14.5,15
290,2020-07-06T04:49:00,0.5,5.5,14.5,15
291,2020-07-06T04:50:00,0.5,5.5,14.5,15
292,2020-07-06T04:51:00,0.5,5,14.5,15
293,2020-07-06T04:52:00,0.5,5,14.5,15
294,2020-07-06T04:53:00,0.5,5,14.5,15
295,2020-07-06T04:54:00,1,5.5,15,15.5
296,2020-07-06T04:55:00,1,5.5,15,15.5
297,2020-07-06T04:56:00,0.5,5.5,15,15.5
298,2020-07-06T04:57:00,0.5,5.5,15,15.5
299,2020-07-06T04:58:00,0.5,5.5,15,15.5
300,2020-07-06T04:59:00,0.5,5.5,15,15.5
301,2020-07-06T05:00:00,1,5.5,15.5,16
302,2020-07-06T05:01:00,1,5.5,15.5,16
303,2020-07-06T05:02:00,1,5.5,15.5,16
304,2020-07-06T05:03:00,1,5.5,15.5,16
305,2020-07-06T05:04:00,0.5,5.5,15.5,16
306,2020-07-06T05:05:00,0.5,5.5,15.5,16
307,2020-07-06T05:06:00,0.5,5.5,15.5,16
308,2020-07-06T05:07:00,0.5,5.5,15.5,16
309,2020-07-06T05:08:00,0.5,5,15.5,16
310,2020-07-06T05:09:00,1,5.5,16,16.5
311,2020-07-06T05:10:00,0.5,5.5,16,16.5
312,2020-07-06T05:11:00,0.5,5,16,16.5
313,2020-07-06T05:12:00,0.5,5,16,16.5
314,2020-07-06T05:13:00,0.5,5,16,16.5
315,2020-07-06T05:14:00,0.5,4.5,16,16.5
316,2020-07-06T05:15:00,0.5,4.5,16,16.5
317,2020-07-06T05:16:00,0.5,4.5,16,16.5
318,2020-07-06T05:17:00,0.5,4.5,16,16.5
319,2020-07-06T05:18:00,0.5,4,16,16.5
320,2020-07-06T05:19:00,0,4,16,16.5
321,2020-07-06T05:20:00,0,3.5,16,16.5
322,2020-07-06T05:21:00,0,3.5,16,16.5
323,2020-07-06T05:22:00,0,3.5,16,16.5
324,2020-07-06T05:23:00,0,3.5,16,16.5
325,2020-07-06T05:24:00,0,3,16,16.5
326,2020-07-06T05:25:00,0,3,16,16.5
327,2020-07-06T05:26:00,0,3,16,16.5
328,2020-07-06T05:27:00,0,2.5,16,16.5
329,2020-07-06T05:28:00,0.5,3,16.5,17
330,2020-07-06T05:29:00,0.5,3,16.5,17
331,2020-07-06T05:30:00,0.5,3,16.5,17
332,2020-07-06T05:31:00,0.5,3,16.5,17
333,2020-07-06T05:32:00,0.5,3,16.5,17
334,2020-07-06T05:33:00,0.5,3,16.5,17
335,2020-07-06T05:34:00,0.5,3,16.5,17
336,2020-07-06T05:35:00,0.5,3,16.5,17
337,2020-07-06T05:36:00,0.5,3,16.5,17
338,2020-07-06T05:37:00,0.5,2.5,16.5,17
339,2020-07-06T05:38:00,0,2.5,16.5,17
340,2020-07-06T05:39:00,0,2.5,16.5,17
341,2020-07-06T05:40:00,0,2.5,16.5,17
342,2020-07-06T05:41:00,0,2.5,16.5,17
343,2020-07-06T05:42:00,0,2.5,16.5,17
344,2020-07-06T05:43:00,0,2.5,16.5,17
345,2020-07-06T05:44:00,0,2.5,16.5,17
346,2020-07-06T05:45:00,0,2.5,16.5,17
347,2020-07-06T05:46:00,0,2,16.5,17
348,2020-07-06T05:47:00,0,2,16.5,17
349,2020-07-06T05:48:00,0,2,16.5,17
350,2020-07-06T05:49:00,0,2,16.5,17
351,2020-07-06T05:50:00,0,2,16.5,17
352,2020-07-06T05:51:00,0,2,16.5,17
353,2020-07-06T05:52:00,0,2,16.5,17
354,2020-07-06T05:53:00,0,2,16.5,17
355,2020-07-06T05:54:00,0.5,2,17,17.5
356,2020-07-06T05:55:00,0.5,2,17,17.5
357,2020-07-06T05:56:00,0.5,2,17,17.5
358,2020-07-06T05:57:00,0.5,2,17,17.5
359,2020-07-06T05:58:00,0.5,2,17,17.5
360,2020-07-06T05:59:00,0.5,2,17,17.5
361,2020-07-06T06:00:00,0.5,1.5,17,17.5
362,2020-07-06T06:01:00,0.5,1.5,17,17.5
363,2020-07-06T06:02:00,0.5,1.5,17,17.5
364,2020-07-06T06:03:00,0.5,1.5,17,17.5
365,2020-07-06T06:04:00,0,1.5,17,17.5
366,2020-07-06T06:05:00,0,1.5,17,17.5
367,2020-07-06T06:06:00,0,1.5,17,17.5
368,2020-07-06T06:07:00,0,1.5,17,17.5
369,2020-07-06T06:08:00,0,1.5,17,17.5
370,2020-07-06T06:09:00,0,1,17,17.5
371,2020-07-06T06:10:00,0,1,17,17.5
372,2020-07-06T06:11:00,0,1,17,17.5
373,2020-07-06T06:12:00,0,1,17,17.5
374,2020-07-06T06:13:00,0,1,17,17.5
375,2020-07-06T06:14:00,0,1,17,17.5
376,2020-07-06T06:15:00,0,1,17,17.5
377,2020-07-06T06:16:00,0,1,17,17.5
378,2020-07-06T06:17:00,0,1,17,17.5
379,2020-07-06T06:18:00,0,1,17,17.5
380,2020-07-06T06:19:00,0,1,17,17.5
381,2020-07-06T06:20:00,0,1,17,17.5
382,2020-07-06T06:21:00,0,1,17,17.5
383,2020-07-06T06:22:00,0,1,17,17.5
384,2020-07-06T06:23:00,0,1,17,17.5
385,2020-07-06T06:24:00,0,1,17,17.5
386,2020-07-06T06:25:00,0,1,17,17.5
387,2020-07-06T06:26:00,0,1,17,17.5
388,2020-07-06T06:27:00,0,1,17,17.5
389,2020-07-06T06:28:00,0,0.5,17,17.5
390,2020-07-06T06:29:00,0,0.5,17,17.5
391,2020-07-06T06:30:00,0,0.5,17,17.5
392,2020-07-06T06:31:00,0.5,1,17.5,18
393,2020-07-06T06:32:00,0.5,1,17.5,18
394,2020-07-06T06:33:00,0.5,1,17.5,18
395,2020-07-06T06:34:00,0.5,1,17.5,18
396,2020-07-06T06:35:00,0.5,1,17.5,18
397,2020-07-06T06:36:00,0.5,1,17.5,18
398,2020-07-06T06:37:00,0.5,1,17.5,18
399,2020-07-06T06:38:00,0.5,1,17.5,18
400,2020-07-06T06:39:00,0.5,1,17.5,18
401,2020-07-06T06:40:00,0.5,1,17.5,18
402,2020-07-06T06:41:00,0,1,17.5,18
403,2020-07-06T06:42:00,0,1,17.5,18
404,2020-07-06T06:43:00,0,1,17.5,18
405,2020-07-06T06:44:00,0,1,17.5,18
406,2020-07-06T06:45:00,0,1,17.5,18
407,2020-07-06T06:46:00,0,1,17.5,18
408,2020-07-06T06:47:00,0,1,17.5,18
409,2020-07-06T06:48:00,0,1,17.5,18
410,2020-07-06T06:49:00,0,1,17.5,18
411,2020-07-06T06:50:00,0,1,17.5,18
412,2020-07-06T06:51:00,0,1,17.5,18
413,2020-07-06T06:52:00,0,1,17.5,18
414,2020-07-06T06:53:00,0,1,17.5,18
415,2020-07-06T06:54:00,0,0.5,17.5,18
416,2020-07-06T06:55:00,0,0.5,17.5,18
417,2020-07-06T06:56:00,0,0.5,17.5,18
418,2020-07-06T06:57:00,0,0.5,17.5,18
419,2020-07-06T06:58:00,0,0.5,17.5,18
420,2020-07-06T06:59:00,0,0.5,17.5,18
421,2020-07-06T07:00:00,0,0.5,17.5,18
422,2020-07-06T07:01:00,0,0.5,17.5,18
423,2020-07-06T07:02:00,0,0.5,17.5,18
424,2020-07-06T07:03:00,0,0.5,17.5,18
425,2020-07-06T07:04:00,0,0.5,17.5,18
426,2020-07-06T07:05:00,0,0.5,17.5,18
427,2020-07-06T07:06:00,0,0.5,17.5,18
428,2020-07-06T07:07:00,0,0.5,17.5,18
429,2020-07-06T07:08:00,0,0.5,17.5,18
430,2020-07-06T07:09:00,0,0.5,17.5,18
431,2020-07-06T07:10:00,0,0.5,17.5,18
432,2020-07-06T07:11:00,0,0.5,17.5,18
433,2020-07-06T07:12:00,0,0.5,17.5,18
434,2020-07-06T07:13:00,0,0.5,17.5,18
435,2020-07-06T07:14:00,0,0.5,17.5,18
436,2020-07-06T07:15:00,0,0.5,17.5,18
437,2020-07-06T07:16:00,0,0.5,17.5,18
438,2020-07-06T07:17:00,0,0.5,17.5,18
439,2020-07-06T07:18:00,0,0.5,17.5,18
440,2020-07-06T07:19:00,0,0.5,17.5,18
441,2020-07-06T07:20:00,0,0.5,17.5,18
442,2020-07-06T07:21:00,0,0.5,17.5,18
443,2020-07-06T07:22:00,0,0.5,17.5,18
444,2020-07-06T07:23:00,0,0.5,17.5,18
445,2020-07-06T07:24:00,0,0.5,17.5,18
446,2020-07-06T07:25:00,0,0.5,17.5,18
447,2020-07-06T07:26:00,0,0.5,17.5,18
448,2020-07-06T07:27:00,0,0.5,17.5,18
449,2020-07-06T07:28:00,0,0.5,17.5,18
450,2020-07-06T07:29:00,0,0.5,17.5,18
451,2020-07-06T07:30:00,0,0.5,17.5,18
452,2020-07-06T07:31:00,0,0,17.5,18
453,2020-07-06T07:32:00,0,0,17.5,18
454,2020-07-06T07:33:00,0,0,17.5,18
455,2020-07-06T07:34:00,0,0,17.5,18
456,2020-07-06T07:35:00,0,0,17.5,18
457,2020-07-06T07:36:00,0,0,17.5,18
458,2020-07-06T07:37:00,0,0,17.5,18
459,2020-07-06T07:38:00,0,0,17.5,18
460,2020-07-06T07:39:00,0,0,17.5,18
461,2020-07-06T07:40:00,0,0,17.5,18
462,2020-07-06T07:41:00,0,0,17.5,18
463,2020-07-06T07:42:00,0,0,17.5,18
464,2020-07-06T07:43:00,0,0,17.5,18
465,2020-07-06T07:44:00,0,0,17.5,18
466,2020-07-06T07:45:00,0,0,17.5,18
467,2020-07-06T07:46:00,0,0,17.5,18
468,2020-07-06T07:47:00,0,0,17.5,18
469,2020-07-06T07:48:00,0,0,17.5,18
470,2020-07-06T07:49:00,0,0,17.5,18
471,2020-07-06T07:50:00,0,0,17.5,18
472,2020-07-06T07:51:00,0,0,17.5,18
473,2020-07-06T07:52:00,0,0,17.5,18
474,2020-07-06T07:53:00,0,0,17.5,18
475,2020-07-06T07:54:00,0,0,17.5,18
476,2020-07-06T07:55:00,0,0,17.5,18
477,2020-07-06T07:56:00,0,0,17.5,18
478,2020-07-06T07:57:00,0,0,17.5,18
479,2020-07-06T07:58:00,0,0,17.5,18
480,2020-07-06T07:59:00,0,0,17.5,18
481,2020-07-06T08:00:00,0,0,17.5,18
482,2020-07-06T08:01:00,0,0,17.5,18
483,2020-07-06T08:02:00,0,0,17.5,18
484,2020-07-06T08:03:00,0,0,17.5,18
485,2020-07-06T08:04:00,0,0,17.5,18
486,2020-07-06T08:05:00,0,0,17.5,18
487,2020-07-06T08:06:00,0,0,17.5,18
488,2020-07-06T08:07:00,0,0,17.5,18
489,2020-07-06T08:08:00,0,0,17.5,18
490,2020-07-06T08:09:00,0,0,17.5,18
491,2020-07-06T08:10:00,0,0,17.5,18
492,2020-07-06T08:11:00,0,0,17.5,18
493,2020-07-06T08:12:00,0,0,17.5,18
494,2020-07-06T08:13:00,0,0,17.5,18
495,2020-07-06T08:14:00,0,0,17.5,18
496,2020-07-06T08:15:00,0,0,17.5,18
497,2020-07-06T08:16:00,0,0,17.5,18
498,2020-07-06T08:17:00,0,0,17.5,18
499,2020-07-06T08:18:00,0,0,17.5,18
500,2020-07-06T08:19:00,0,0,17.5,18
501,2020-07-06T08:20:00,0,0,17.5,18
502,2020-07-06T08:21:00,0,0,17.5,18
503,2020-07-06T08:22:00,0,0,17.5,18
504,2020-07-06T08:23:00,0,0,17.5,18
505,2020-07-06T08:24:00,0,0,17.5,18
506,2020-07-06T08:25:00,0,0,17.5,18
507,2020-07-06T08:26:00,0,0,17.5,18
508,2020-07-06T08:27:00,0,0,17.5,18
509,2020-07-06T08:28:00,0,0,17.5,18
510,2020-07-06T08:29:00,0,0,17.5,18
511,2020-07-06T08:30:00,0,0,17.5,18
512,2020-07-06T08:31:00,0,0,17.5,18
513,2020-07-06T08:32:00,0,0,17.5,18
514,2020-07-06T08:33:00,0,0,17.5,18
515,2020-07-06T08:34:00,0,0,17.5,18
516,2020-07-06T08:35:00,0,0,17.5,18
517,2020-07-06T08:36:00,0,0,17.5,18
518,2020-07-06T08:37:00,0,0,17.5,18
519,2020-07-06T08:38:00,0,0,17.5,18
520,2020-07-06T08:39:00,0,0,17.5,18
521,2020-07-06T08:40:00,0,0,17.5,18
522,2020-07-06T08:41:00,0,0,17.5,18
523,2020-07-06T08:42:00,0,0,17.5,18
524,2020-07-06T08:43:00,0,0,17.5,18
525,2020-07-06T08:44:00,0,0,17.5,18
526,2020-07-06T08:45:00,0,0,17.5,18
527,2020-07-06T08:46:00,0,0,17.5,18
528,2020-07-06T08:47:00,0,0,17.5,18
529,2020-07-06T08:48:00,0,0,17.5,18
530,2020-07-06T08:49:00,0,0,17.5,18
531,2020-07-06T08:50:00,0,0,17.5,18
532,2020-07-06T08:51:00,0,0,17.5,18
533,2020-07-06T08:52:00,0,0,17.5,18
534,2020-07-06T08:53:00,0,0,17.5,18
535,2020-07-06T08:54:00,0,0,17.5,18
536,2020-07-06T08:55:00,0,0,17.5,18
537,2020-07-06T08:56:00,0,0,17.5,18
538,2020-07-06T08:57:00,0,0,17.5,18
539,2020-07-06T08:58:00,0,0,17.5,18
540,2020-07-06T08:59:00,0,0,17.5,18
541,2020-07-06T09:00:00,0,0,17.5,18
542,2020-07-06T09:01:00,0,0,17.5,18
543,2020-07-06T09:02:00,0,0,17.5,18
544,2020-07-06T09:03:00,0,0,17.5,18
545,2020-07-06T09:04:00,0,0,17.5,18
546,2020-07-06T09:05:00,0,0,17.5,18
547,2020-07-06T09:06:00,0,0,17.5,18
548,2020-07-06T09:07:00,0,0,17.5,18
549,2020-07-06T09:08:00,0,0,17.5,18
550,2020-07-06T09:09:00,0,0,17.5,18
551,2020-07-06T09:10:00,0,0,17.5,18
552,2020-07-06T09:11:00,0,0,17.5,18
553,2020-07-06T09:12:00,0,0,17.5,18
554,2020-07-06T09:13:00,0,0,17.5,18
555,2020-07-06T09:14:00,0,0,17.5,18
556,2020-07-06T09:15:00,0,0,17.5,18
557,2020-07-06T09:16:00,0,0,17.5,18
558,2020-07-06T09:17:00,0,0,17.5,18
559,2020-07-06T09:18:00,0,0,17.5,18
560,2020-07-06T09:19:00,0,0,17.5,18
561,2020-07-06T09:20:00,0,0,17.5,18
562,2020-07-06T09:21:00,0,0,17.5,18
563,2020-07-06T09:22:00,0,0,17.5,18
564,2020-07-06T09:23:00,0,0,17.5,18
565,2020-07-06T09:24:00,0,0,17.5,18
566,2020-07-06T09:25:00,0,0,17.5,18
567,2020-07-06T09:26:00,0,0,17.5,18
568,2020-07-06T09:27:00,0,0,17.5,18
569,2020-07-06T09:28:00,0,0,17.5,18
570,2020-07-06T09:29:00,0,0,17.5,18
571,2020-07-06T09:30:00,0,0,17.5,18
572,2020-07-06T09:31:00,0,0,17.5,18
573,2020-07-06T09:32:00,0,0,17.5,18
574,2020-07-06T09:33:00,0,0,17.5,18
575,2020-07-06T09:34:00,0,0,17.5,18
576,2020-07-06T09:35:00,0,0,17.5,18
577,2020-07-06T09:36:00,0,0,17.5,18
578,2020-07-06T09:37:00,0,0,17.5,18
579,2020-07-06T09:38:00,0,0,17.5,18
580,2020-07-06T09:39:00,0,0,17.5,18
581,2020-07-06T09:40:00,0,0,17.5,18
582,2020-07-06T09:41:00,0,0,17.5,18
583,2020-07-06T09:42:00,0,0,17.5,18
584,2020-07-06T09:43:00,0,0,17.5,18
585,2020-07-06T09:44:00,0,0,17.5,18
586,2020-07-06T09:45:00,0,0,17.5,18
587,2020-07-06T09:46:00,0,0,17.5,18
588,2020-07-06T09:47:00,0.5,0.5,18,18.5
589,2020-07-06T09:48:00,0.5,0.5,18,18.5
590,2020-07-06T09:49:00,0.5,0.5,18,18.5
591,2020-07-06T09:50:00,0.5,0.5,18,18.5
592,2020-07-06T09:51:00,0.5,0.5,18,18.5
593,2020-07-06T09:52:00,0.5,0.5,18,18.5
594,2020-07-06T09:53:00,1,1,18.5,19
595,2020-07-06T09:54:00,1,1,18.5,19
596,2020-07-06T09:55:00,1,1,18.5,19
597,2020-07-06T09:56:00,1,1,18.5,19
598,2020-07-06T09:57:00,0.5,1,18.5,19
599,2020-07-06T09:58:00,1,1.5,19,19.5
600,2020-07-06T09:59:00,1,1.5,19,19.5
601,2020-07-06T10:00:00,1,1.5,19,19.5
602,2020-07-06T10:01:00,1,1.5,19,19.5
603,2020-07-06T10:02:00,1,1.5,19,19.5
604,2020-07-06T10:03:00,1,2,19.5,20
605,2020-07-06T10:04:00,1,2,19.5,20
606,2020-07-06T10:05:00,1,2,19.5,20
607,2020-07-06T10:06:00,1,2,19.5,20
608,2020-07-06T10:07:00,1,2,19.5,20
609,2020-07-06T10:08:00,0.5,2,19.5,20
610,2020-07-06T10:09:00,1,2.5,20,20.5
611,2020-07-06T10:10:00,1,2.5,20,20.5
612,2020-07-06T10:11:00,1.5,3,20.5,21
613,2020-07-06T10:12:00,1.5,3,20.5,21
614,2020-07-06T10:13:00,1,3,20.5,21
615,2020-07-06T10:14:00,1.5,3.5,21,21.5
616,2020-07-06T10:15:00,1.5,3.5,21,21.5
617,2020-07-06T10:16:00,1.5,3.5,21,21.5
618,2020-07-06T10:17:00,1.5,3.5,21,21.5
619,2020-07-06T10:18:00,1.5,3.5,21,21.5
620,2020-07-06T10:19:00,1,3.5,21,21.5
621,2020-07-06T10:20:00,1,3.5,21,21.5
622,2020-07-06T10:21:00,0.5,3.5,21,21.5
623,2020-07-06T10:22:00,0.5,3.5,21,21.5
624,2020-07-06T10:23:00,0.5,3.5,21,21.5
625,2020-07-06T10:24:00,0,3.5,21,21.5
626,2020-07-06T10:25:00,0,3.5,21,21.5
627,2020-07-06T10:26:00,0.5,4,21.5,22
628,2020-07-06T10:27:00,0.5,4,21.5,22
629,2020-07-06T10:28:00,0.5,4,21.5,22
630,2020-07-06T10:29:00,0.5,4,21.5,22
631,2020-07-06T10:30:00,0.5,4,21.5,22
632,2020-07-06T10:31:00,1,4.5,22,22.5
633,2020-07-06T10:32:00,1,4.5,22,22.5
634,2020-07-06T10:33:00,1,4.5,22,22.5
635,2020-07-06T10:34:00,1,4.5,22,22.5
636,2020-07-06T10:35:00,1,4.5,22,22.5
637,2020-07-06T10:36:00,0.5,4.5,22,22.5
638,2020-07-06T10:37:00,1,5,22.5,23
639,2020-07-06T10:38:00,1,5,22.5,23
640,2020-07-06T10:39:00,1,5,22.5,23
641,2020-07-06T10:40:00,1,5,22.5,23
642,2020-07-06T10:41:00,0.5,5,22.5,23
643,2020-07-06T10:42:00,0.5,5,22.5,23
644,2020-07-06T10:43:00,0.5,5,22.5,23
645,2020-07-06T10:44:00,1,5.5,23,23.5
646,2020-07-06T10:45:00,1,5.5,23,23.5
647,2020-07-06T10:46:00,1,5.5,23,23.5
648,2020-07-06T10:47:00,0.5,5,23,23.5
649,2020-07-06T10:48:00,0.5,5,23,23.5
650,2020-07-06T10:49:00,0.5,5,23,23.5
651,2020-07-06T10:50:00,0.5,5,23,23.5